Tracking 25953 objects as of 16-Aug-2022
HD Live streaming from Space Station
objects crossing your sky now

AL FARABI 2

Track AL FARABI 2 now!
10-day predictions


NORAD ID: 43805
Int'l Code: 2018-099AZ
Perigee: 569.5 km
Apogee: 591.9 km
Inclination: 97.6 °
Period: 96.1 minutes
Semi major axis: 6951 km
RCS: Unknown
Launch date: December 3, 2018
Source: (TBD)
Launch site: AIR FORCE WESTERN TEST RANGE (AFWTR)
aabbcc
Your satellite tracking list
Your tracking list is empty




NASA's NSSDC Master Catalog

Two Line Element Set (TLE):
1 43805U 18099AZ  22227.80042365  .00003161  00000-0  27295-3 0  9999
2 43805  97.6168 293.7910 0016107  72.0548 288.2417 14.97857287201981
Source of the keplerian elements: AFSPC